{"data":{"norad_id":66689,"epoch":"2026-05-25T02:51:27.646272Z","epoch_age_seconds":58018,"freshness":"FRESH","line1":"1 66689U 25276Z   26145.11906998  .00001897  00000+0  96306-4 0  9990","line2":"2 66689  97.4211 218.8542 0004471  93.4594 266.7151 15.18108750 26902","mean_motion":15.1810875,"eccentricity":0.0004471,"inclination_deg":97.4211,"raan_deg":218.8542,"arg_perigee_deg":93.4594,"mean_anomaly_deg":266.7151,"bstar":9.6306e-5,"rev_number":2690,"period_min":94.854864646554,"perigee_km":508.47638821346,"apogee_km":514.63715238286,"semimajor_km":6889.6937702982,"source":"CELESTRAK","updated_at":"2026-05-25T13:38:06.412901Z"}}